Theta_e
296 296 297 297 296 296 295 295 295 294 294 294 294 294 294 293 293 293 292 292 291 292 292 291 291 290 290 290 289 289 289 289 288 288 288 287 287 287 286 286 286 285 285 285 284 284 284 283 283 283 282 282 282 281 281 281 281 281 280 280 280 280 280 280 280 280 280 280 280 280 280 280 281 281 281 281 281 281 281 281 281 281 281 282 282
296 295 296 296 296 296 295 295 294 294 294 294 294 294 294 293 293 293 292 292 292 291 291 291 291 291 290 290 290 289 289 289 288 288 288 288 287 287 286 286 286 285 285 285 284 284 284 283 283 283 282 282 282 281 281 281 281 281 280 280 280 280 280 280 280 280 280 280 280 280 280 280 281 281 281 281 281 281 281 281 281 281 281 282 282
297 295 296 296 296 295 295 295 294 294 294 294 294 294 293 293 293 293 292 292 292 292 292 291 291 291 291 290 290 289 289 289 288 288 288 288 287 287 286 286 285 285 285 285 285 284 284 284 283 283 283 282 282 281 281 281 281 281 280 280 279 279 279 279 279 280 280 280 280 279 280 280 281 281 281 281 281 281 281 281 281 281 282 282 282
299 297 295 295 296 295 294 294 294 294 294 294 294 293 293 293 293 292 292 292 292 291 291 291 291 291 291 290 290 289 289 289 289 289 289 288 288 287 287 286 286 285 285 285 284 284 284 284 283 283 283 282 282 281 281 281 281 281 280 280 279 279 279 279 279 279 279 280 280 280 280 280 281 280 280 280 281 281 281 281 281 281 282 282 282
299 299 296 294 294 294 294 294 294 294 294 294 293 293 293 292 292 292 291 290 290 290 291 291 291 291 291 290 290 290 289 289 289 289 289 289 289 288 287 287 286 286 285 285 284 284 284 283 283 283 283 282 282 281 281 281 281 280 280 280 279 279 279 279 279 279 279 279 280 280 280 280 281 280 279 280 281 281 281 281 281 281 281 282 281
297 296 295 293 292 293 294 294 294 294 293 293 293 293 292 291 291 290 289 288 288 289 289 290 290 290 290 290 290 289 289 289 289 289 289 289 289 289 288 287 287 286 286 285 284 284 284 284 283 283 283 282 282 281 281 281 280 280 280 280 279 279 279 278 278 279 279 279 279 279 280 280 280 279 279 280 280 280 280 281 281 281 281 280 280
296 294 292 292 292 293 293 293 293 293 293 293 292 291 290 289 289 288 287 287 287 288 288 288 289 289 289 289 289 289 289 289 289 290 289 289 289 289 289 288 287 287 286 286 285 284 284 284 283 283 283 282 282 281 281 281 280 280 280 279 279 279 278 278 278 278 278 278 279 279 279 279 279 279 279 279 279 279 280 280 280 280 280 280 280
297 296 292 291 292 293 293 293 292 292 292 291 291 289 288 288 287 287 287 286 287 287 287 287 286 286 287 288 288 288 289 289 289 289 289 289 289 288 288 288 288 287 287 286 285 285 284 284 283 283 283 282 282 281 281 281 280 280 280 279 279 279 278 278 278 278 278 278 278 278 279 279 279 279 279 279 279 279 279 279 279 279 279 280 280
294 294 292 291 292 292 292 291 291 291 290 290 289 288 287 287 287 286 286 286 286 286 285 285 285 285 285 286 287 287 287 287 287 287 288 288 288 288 288 288 288 288 287 287 286 285 285 284 284 283 283 282 282 282 281 281 280 280 279 279 279 279 278 278 278 278 278 278 278 278 278 278 278 278 278 278 278 278 278 278 279 279 279 279 279
292 291 291 292 292 292 291 290 290 290 289 289 288 287 287 286 286 285 285 285 285 284 284 284 284 284 284 284 285 285 285 285 286 286 286 287 287 287 287 287 287 287 287 287 286 286 285 284 284 283 283 283 282 282 281 281 280 280 280 279 279 278 278 278 278 278 278 278 278 278 278 278 278 278 278 278 278 278 278 278 278 278 278 278 279
293 291 291 292 292 291 290 290 290 289 289 288 287 286 286 285 285 285 284 284 284 283 283 283 283 283 282 283 283 284 284 285 285 285 285 285 286 286 286 286 286 286 286 286 286 286 285 285 284 283 283 283 282 281 281 281 280 280 280 279 279 278 278 278 278 278 278 278 278 278 278 278 278 278 277 277 277 277 277 278 278 278 278 278 278
294 292 291 291 291 291 290 289 289 289 288 286 286 285 285 284 284 284 283 283 282 282 282 282 281 281 282 282 283 283 283 283 284 284 284 285 285 285 285 285 285 285 285 285 285 285 285 285 284 283 283 283 282 282 281 281 280 280 280 279 279 278 278 278 277 277 277 277 277 277 277 278 278 278 278 278 277 277 277 277 277 277 277 277 277
294 294 292 291 291 290 289 289 288 288 286 285 285 284 284 283 283 283 282 282 281 281 280 280 281 281 281 281 281 281 281 282 283 283 284 284 285 285 284 284 284 284 284 284 284 284 284 284 284 283 283 283 283 282 281 281 280 280 280 279 279 278 278 278 277 277 277 277 277 277 277 277 277 277 277 278 277 277 277 277 277 277 277 277 277
294 294 292 290 291 290 288 288 287 286 285 285 284 283 283 283 282 282 281 280 280 279 279 280 280 280 279 279 279 280 280 281 282 282 283 283 283 284 284 284 284 283 283 283 283 284 284 284 283 283 283 283 283 282 281 281 281 280 280 279 279 278 278 278 278 277 277 277 277 277 277 277 277 277 277 277 277 277 277 277 277 277 276 276 276
295 294 292 290 290 289 288 287 286 285 285 284 283 282 282 282 281 280 279 279 279 278 279 279 278 278 278 278 278 279 278 278 279 279 279 280 281 282 282 282 283 283 283 283 283 283 283 283 283 283 283 283 282 282 282 281 281 280 280 279 279 278 278 277 277 277 277 277 277 277 277 277 277 277 277 277 277 277 277 277 276 277 276 276 276
295 293 291 290 289 288 287 286 285 284 284 283 282 281 281 280 280 279 278 278 277 277 277 277 276 277 277 278 277 276 276 275 276 276 277 278 278 279 280 281 282 282 282 282 282 282 282 282 282 282 282 282 282 282 281 281 280 280 280 279 278 278 277 277 277 277 277 277 277 276 276 276 276 277 277 277 277 277 277 276 276 276 276 276 276
293 292 290 288 287 287 286 285 284 283 282 281 280 280 280 279 278 277 277 277 276 276 276 275 276 276 276 276 275 274 274 274 275 276 276 277 277 278 279 280 280 280 280 280 280 280 280 280 280 281 281 281 281 281 281 280 280 280 279 278 278 278 277 277 277 277 276 276 276 276 276 276 276 276 276 277 277 277 276 276 276 276 276 276 276
292 291 288 287 286 285 285 284 283 282 281 280 279 279 278 277 277 276 276 275 275 274 275 275 276 275 274 273 272 272 273 274 275 275 275 276 277 278 279 279 279 278 278 278 278 279 279 279 279 279 279 279 279 279 279 280 279 279 279 278 278 277 277 277 277 276 276 276 276 276 276 276 276 276 276 276 276 276 276 276 276 276 275 275 275
291 290 287 286 285 285 284 283 282 281 280 279 278 277 277 276 276 275 274 274 274 274 275 275 274 273 272 271 272 272 273 274 274 275 275 276 277 277 277 277 276 276 276 277 277 278 278 278 278 278 278 278 278 278 278 278 278 278 278 278 277 277 276 276 276 276 276 276 276 276 276 276 276 276 276 276 276 276 276 276 275 275 275 275 275
289 287 286 285 285 284 283 282 281 279 278 277 277 276 276 275 274 273 273 273 273 274 274 273 272 271 271 271 272 273 273 274 274 274 275 275 274 273 274 274 273 273 274 274 275 276 277 277 278 278 278 278 278 278 278 278 278 278 277 277 277 276 276 276 276 276 276 276 275 275 275 275 275 275 275 275 275 275 275 275 275 275 275 275 275
287 286 285 284 284 283 282 281 279 278 277 276 275 275 275 274 273 272 272 273 273 273 272 271 270 270 270 271 272 273 273 273 272 272 272 272 271 271 271 271 271 271 271 271 272 273 274 275 276 277 277 277 278 278 278 278 278 277 277 277 276 276 276 275 275 275 275 275 275 275 275 275 275 275 275 275 275 275 275 275 274 274 274 274 274
287 285 284 284 283 282 280 279 278 277 276 275 274 274 274 272 272 272 272 273 273 271 270 269 269 270 271 272 272 272 271 270 270 269 269 269 269 268 268 268 268 268 268 268 269 270 271 272 273 275 276 276 276 277 277 277 277 277 277 276 276 276 275 275 275 275 275 275 275 275 275 275 275 275 275 275 275 275 274 274 274 274 274 274 274
286 285 284 283 282 280 279 278 276 276 275 273 273 273 272 271 271 271 272 272 271 269 268 268 269 270 271 271 270 269 268 268 267 267 267 267 266 265 266 266 266 266 266 266 267 267 268 270 271 272 273 274 274 275 275 276 276 276 276 275 275 275 275 275 275 275 275 275 275 275 275 275 275 275 274 274 274 274 274 274 274 274 273 273 274
286 284 283 282 280 279 277 276 275 274 273 272 273 273 271 271 271 271 271 271 269 268 268 268 269 270 270 269 267 267 267 267 266 266 266 265 264 264 264 265 265 265 265 265 266 267 268 269 270 271 272 273 273 274 274 274 274 275 275 275 275 275 275 275 274 274 274 274 274 274 274 274 274 274 274 274 274 274 274 274 273 273 273 273 273
285 283 281 280 278 277 276 275 274 273 272 272 272 272 270 270 270 270 270 269 268 267 267 268 269 269 268 266 265 265 266 265 265 265 264 263 263 263 263 263 264 264 264 265 266 267 267 267 268 268 270 272 273 274 274 274 274 274 274 274 274 274 274 274 274 274 274 274 274 274 274 274 274 274 274 274 274 274 274 273 273 273 273 273 273
284 281 279 278 277 276 275 274 273 272 271 272 271 270 270 270 269 269 268 267 267 267 267 268 268 267 266 265 264 264 264 264 264 263 263 262 262 262 262 263 263 263 263 263 264 264 265 265 265 266 267 269 271 273 273 273 273 273 273 273 273 274 274 274 274 274 274 274 274 274 274 274 274 274 274 274 274 273 273 273 273 273 273 273 273
282 279 278 277 276 275 274 273 272 271 271 271 270 270 269 269 268 267 267 266 266 266 267 268 267 265 264 264 263 264 263 263 263 262 262 261 261 261 262 262 262 262 262 262 262 263 263 263 264 265 266 267 269 270 272 272 272 272 273 273 273 273 273 274 274 274 274 274 274 274 274 274 274 273 273 273 273 273 273 273 273 273 273 273 273
279 277 276 276 275 274 273 272 271 271 270 270 269 269 268 267 267 266 266 266 265 266 267 267 265 264 263 263 262 263 262 262 262 261 261 261 261 261 261 261 261 261 261 261 262 262 262 263 263 264 266 267 269 270 271 272 272 272 272 272 273 273 273 273 273 274 274 274 274 274 273 273 273 273 273 273 273 273 273 273 273 273 273 272 272
277 276 276 275 274 273 272 271 270 270 270 269 269 268 267 267 266 265 265 265 265 265 266 265 264 263 262 262 262 261 261 261 261 260 260 260 260 260 260 260 260 260 261 261 261 262 262 263 263 264 266 268 269 270 270 271 271 272 272 272 272 273 273 273 273 273 273 273 273 273 273 273 273 273 273 273 273 273 273 272 273 272 272 272 272
276 276 275 273 272 272 271 270 270 269 269 268 268 267 266 266 265 264 264 264 264 265 265 264 263 262 261 261 261 260 260 260 260 259 259 259 259 259 259 259 260 260 260 261 261 261 262 262 263 264 265 266 267 267 268 269 270 271 272 273 273 273 273 273 273 273 273 273 273 273 273 272 272 272 272 272 273 273 273 273 273 272 272 272 272
275 274 273 272 271 270 270 269 269 268 268 267 267 267 266 265 264 264 263 263 264 264 264 263 262 261 261 260 260 260 259 259 259 259 259 259 259 259 259 259 259 260 260 260 261 261 262 262 263 264 264 265 265 266 268 270 271 272 273 273 273 273 273 273 273 273 272 272 272 272 272 272 272 272 272 272 272 273 273 273 273 273 273 272 272
274 273 271 271 270 269 269 268 268 268 267 267 266 266 265 264 263 263 262 262 263 263 263 262 261 260 260 259 259 259 259 258 258 258 258 258 258 258 259 259 259 259 260 260 261 261 262 262 263 263 264 265 266 267 269 271 271 272 273 274 274 273 273 273 272 272 272 272 272 272 272 271 271 271 271 271 272 272 272 273 273 273 273 273 273
273 272 270 270 269 268 268 267 267 267 266 266 265 265 264 263 262 262 262 262 262 262 261 261 260 260 259 259 259 258 258 258 258 258 258 258 258 258 258 259 259 259 260 260 261 261 262 262 263 264 264 265 266 268 270 271 271 272 273 273 274 273 273 272 272 272 272 272 272 271 271 271 271 271 271 271 271 271 271 271 272 272 273 273 273
272 271 269 269 268 267 267 267 267 266 265 265 265 264 263 262 262 261 261 261 261 261 261 260 259 259 259 258 258 258 258 258 257 257 257 258 258 258 258 259 259 259 260 260 261 261 262 263 263 264 264 265 267 268 270 270 271 272 273 273 274 274 273 273 272 272 272 272 271 271 271 271 270 270 270 270 270 270 270 270 270 271 271 272 272
271 270 269 268 267 267 267 266 266 266 264 264 264 263 262 262 261 261 261 261 261 260 260 259 259 258 258 258 258 257 257 257 257 257 257 257 258 258 258 259 259 260 260 260 261 262 262 263 263 264 265 266 267 268 270 270 271 272 273 273 273 273 273 273 272 272 272 271 271 271 271 270 270 270 270 270 270 270 269 270 270 270 270 270 271
270 269 268 268 267 266 266 265 265 265 264 263 263 262 261 261 260 260 260 260 260 260 259 259 258 258 258 257 257 257 257 257 257 257 257 257 258 258 258 259 259 260 260 261 261 262 262 263 264 265 266 267 267 268 269 270 271 272 272 273 273 273 273 273 272 272 271 271 271 271 270 270 270 270 270 270 270 270 269 269 269 269 269 270 270
269 268 268 267 266 266 265 265 265 264 263 263 262 261 261 260 260 260 260 260 259 259 258 258 258 258 257 257 257 257 256 256 256 257 257 257 258 258 258 259 259 260 260 261 262 262 263 264 265 266 266 267 267 268 269 270 270 271 272 272 272 272 272 272 272 272 272 271 271 271 270 270 270 269 269 270 271 271 270 270 269 269 269 269 269
269 268 267 266 266 265 264 264 264 263 263 262 261 260 260 259 259 259 259 259 259 258 258 257 257 257 257 257 256 256 256 256 256 256 257 257 258 258 259 259 260 260 261 261 262 263 264 265 265 266 266 266 267 267 268 269 270 270 271 271 272 272 272 272 271 271 271 271 271 270 270 270 269 269 269 270 271 271 271 270 270 269 269 269 269
268 267 267 266 265 264 264 264 263 263 262 261 260 260 259 259 259 259 259 259 258 258 257 257 257 257 256 256 256 256 256 256 256 256 257 257 258 258 259 259 260 260 261 262 262 263 264 264 265 265 266 266 266 266 267 268 269 270 270 270 271 271 271 271 271 271 270 270 270 270 270 270 270 269 269 270 271 271 271 271 271 270 270 269 269
267 267 266 265 264 263 263 263 262 262 261 260 260 259 259 259 259 258 258 258 258 257 257 257 256 256 256 256 256 256 256 256 256 256 257 258 258 259 259 260 260 261 261 262 262 263 263 264 264 265 265 266 266 266 266 267 268 269 270 270 270 271 271 271 271 270 270 269 269 269 269 270 270 270 270 271 271 271 271 271 271 271 270 270 270
266 266 265 264 263 263 263 262 262 261 261 260 259 259 258 258 258 258 258 258 257 257 256 256 256 256 256 256 255 255 255 256 256 257 257 258 258 259 259 260 260 261 261 261 262 262 263 264 264 265 265 265 265 265 265 266 267 268 269 269 270 270 270 270 270 270 270 269 269 269 269 269 270 271 271 272 272 272 272 272 272 271 271 271 271
265 265 265 263 263 262 262 262 261 261 260 259 259 258 258 258 258 258 258 257 257 256 256 256 256 255 255 255 255 255 255 256 256 257 257 258 259 259 259 260 260 261 261 261 262 262 263 264 265 265 265 265 265 265 265 266 266 267 268 269 269 270 270 270 270 270 270 269 269 269 269 269 270 270 271 271 272 272 273 273 272 272 272 272 272
265 265 264 263 262 262 262 261 261 260 260 259 258 258 258 258 258 257 257 257 256 256 256 255 255 255 255 255 255 255 255 256 256 257 258 258 259 259 259 260 260 260 261 261 262 263 263 264 265 265 265 265 265 265 265 265 266 266 267 268 269 269 270 270 270 270 270 270 270 269 269 269 270 270 271 271 272 272 273 273 274 273 273 273 273
264 264 263 262 262 261 261 261 260 260 259 259 258 258 257 257 257 257 257 256 256 256 255 255 255 255 255 255 255 255 255 256 257 257 258 258 258 259 259 260 260 260 261 261 262 263 264 264 265 265 265 266 265 265 265 265 265 266 267 268 269 269 270 270 271 270 270 270 270 270 269 270 270 270 271 271 272 272 273 273 274 274 274 274 274
264 264 263 262 261 261 261 260 260 259 259 258 258 258 257 257 257 257 256 256 256 255 255 255 255 254 254 255 255 255 255 256 257 257 258 258 258 259 259 260 260 261 261 262 263 263 264 265 265 266 266 266 266 265 265 266 266 266 267 268 269 269 270 270 270 270 270 270 270 270 270 270 271 271 271 271 272 272 273 273 274 274 275 275 275
263 263 262 262 261 261 260 260 259 259 258 258 258 257 257 257 257 256 256 256 255 255 255 254 254 254 254 254 255 255 256 256 257 257 257 258 258 259 259 260 260 261 262 263 263 264 265 266 266 266 266 266 266 266 266 267 267 267 267 268 268 269 269 269 270 270 271 271 271 271 271 271 271 271 271 272 272 272 273 274 274 274 275 275 276
263 262 262 261 261 260 260 259 259 258 258 258 257 257 257 257 257 256 256 255 255 255 254 254 254 254 254 254 254 255 256 256 256 257 257 258 258 259 259 260 261 262 263 263 264 265 266 267 268 267 267 266 267 267 267 268 269 269 269 269 269 269 268 269 269 270 271 271 271 271 271 271 271 272 272 272 273 273 274 274 275 275 275 276 276
262 262 261 261 260 260 259 259 258 258 258 257 257 257 257 257 256 256 255 255 255 254 254 254 254 254 254 254 254 255 255 256 256 257 257 258 258 259 259 260 261 263 263 264 265 266 267 268 268 268 267 267 267 268 268 269 269 269 270 270 270 270 269 268 269 270 271 271 271 271 271 271 272 272 272 272 272 273 274 274 274 275 275 276 276
262 261 261 260 260 259 259 258 258 258 257 257 257 257 257 256 256 256 255 254 254 254 254 254 254 254 254 254 254 255 255 256 256 257 257 257 258 259 260 261 262 262 263 264 266 267 267 268 268 268 268 267 267 268 269 270 270 271 271 271 271 271 270 269 269 270 271 272 272 271 271 271 271 271 271 271 271 272 272 273 273 273 274 274 275
262 261 261 260 259 259 258 258 258 257 257 257 257 257 257 256 256 255 255 254 254 254 253 254 253 253 254 254 254 255 255 256 256 256 257 257 258 258 259 261 262 262 263 265 266 266 267 268 268 268 268 268 268 270 270 271 272 272 272 272 272 271 270 269 270 271 272 272 271 271 271 270 270 270 270 270 270 271 271 271 271 272 272 273 273
261 261 260 260 259 258 258 257 257 257 257 257 256 256 256 256 255 255 254 254 254 253 253 253 253 253 254 254 254 255 255 255 256 256 257 257 257 258 258 260 261 262 263 264 265 265 266 267 267 268 268 269 270 270 271 271 272 272 272 272 272 272 271 271 271 272 271 271 270 270 269 269 269 269 269 269 269 270 270 270 270 270 271 271 271
Wind_Speed
7 14 15 14 15 15 15 15 16 16 16 17 18 19 18 20 21 21 22 24 24 22 21 21 22 22 21 20 20 20 21 21 20 21 21 22 23 23 24 25 26 27 27 27 28 29 30 31 31 32 31 31 31 31 31 30 30 30 29 28 27 27 27 27 26 25 24 22 23 26 27 29 31 32 32 32 33 33 30 28 24 22 21 20 18
8 11 11 12 12 12 13 15 17 17 18 18 19 18 19 22 22 20 22 25 25 24 23 22 23 23 22 21 21 21 21 21 21 21 21 21 21 21 22 22 23 23 24 25 26 28 29 30 31 32 32 32 32 32 31 31 30 30 29 28 27 26 26 26 26 21 16 14 13 14 17 22 24 23 24 25 25 26 26 25 23 21 21 20 19
7 9 10 11 10 11 15 18 20 20 20 19 19 20 22 23 22 22 25 27 26 26 25 24 24 23 23 22 21 21 21 21 22 22 22 22 22 21 22 22 21 21 21 22 24 26 27 29 31 32 33 33 33 33 32 31 31 31 29 28 27 25 25 25 25 21 18 15 11 7 7 9 11 10 13 16 17 17 18 19 21 21 21 19 19
7 7 10 14 14 16 20 21 21 21 20 19 20 22 22 23 23 25 27 28 28 28 27 26 25 24 24 23 22 21 22 22 23 24 24 24 24 23 23 23 22 22 21 21 22 24 25 27 29 31 33 34 34 34 33 33 33 32 30 29 26 24 24 24 23 22 21 17 8 4 2 3 4 4 7 13 14 13 14 15 17 19 19 18 18
7 7 8 14 18 19 21 21 20 20 20 19 20 21 21 23 24 25 27 29 29 30 30 29 28 27 26 25 24 24 24 24 25 26 27 27 27 26 24 24 24 25 24 22 22 22 23 25 27 30 32 33 34 35 35 34 33 32 31 31 28 25 25 25 23 21 22 21 15 8 3 2 3 3 7 10 9 9 11 11 12 14 16 17 17
7 7 9 14 19 20 21 20 19 18 19 18 19 22 22 23 25 25 28 30 30 31 31 32 32 31 30 28 26 26 25 26 27 29 29 29 29 28 27 26 26 26 27 26 24 23 23 23 25 27 30 32 33 35 35 34 33 33 32 31 30 29 27 24 23 23 23 24 24 21 17 13 8 6 5 5 7 12 15 14 13 14 15 16 17
7 8 12 15 18 20 19 17 17 17 18 18 19 23 23 24 26 27 31 32 31 31 31 32 33 34 33 32 31 30 29 30 32 33 33 32 31 30 30 29 28 28 28 28 27 26 24 24 24 26 28 30 32 33 34 34 35 34 32 31 31 30 27 25 25 25 23 23 25 27 28 27 23 14 7 5 7 11 14 16 16 16 16 17 18
7 7 10 14 16 17 16 16 18 18 19 20 21 24 25 27 28 30 33 33 31 31 31 33 34 35 35 34 34 33 32 34 37 38 38 37 35 33 32 32 31 30 30 29 29 28 27 26 25 26 27 29 31 33 34 34 35 35 33 32 31 30 29 28 29 25 22 23 23 24 27 28 28 25 20 14 7 6 11 14 20 22 21 22 22
7 7 9 13 15 15 16 17 19 19 21 21 22 25 27 29 30 31 33 32 31 32 34 35 35 34 34 34 33 33 33 35 37 38 39 39 39 38 36 34 34 34 33 32 31 30 30 29 27 27 28 28 30 32 33 33 34 34 34 32 32 32 31 31 31 28 26 26 24 22 24 25 24 25 26 21 12 9 10 9 14 18 20 24 26
8 10 11 12 13 14 17 19 20 20 20 22 24 27 29 30 30 32 33 31 31 34 34 34 34 33 33 32 32 32 33 34 35 35 36 37 38 39 37 36 36 37 36 35 33 32 32 32 30 28 28 28 29 32 33 34 33 34 34 34 33 32 32 31 32 32 30 29 27 23 22 20 17 15 18 18 14 12 11 9 9 11 12 18 21
6 9 11 12 14 16 18 20 20 20 20 23 27 28 29 31 32 32 32 31 33 35 34 34 34 33 33 33 32 33 33 33 33 33 34 34 34 35 34 34 36 38 39 37 36 35 34 34 33 31 29 28 29 31 33 33 32 32 33 34 34 33 33 32 33 33 31 30 29 27 25 24 19 15 16 17 13 10 10 9 10 12 13 17 20
5 6 8 11 13 15 18 19 18 20 22 25 27 29 30 32 33 32 32 33 35 35 35 35 35 35 34 33 32 33 33 33 33 33 34 33 32 32 32 33 35 37 38 38 38 37 35 35 35 34 31 30 30 30 32 32 32 32 33 34 34 34 34 33 33 34 33 32 31 30 29 29 28 26 24 22 18 16 13 8 9 12 11 17 22
5 4 5 8 10 13 17 18 18 21 23 26 28 30 32 32 32 32 32 34 34 34 35 35 34 32 31 32 33 34 34 34 33 33 33 32 31 31 32 33 34 35 35 36 37 36 35 36 37 36 34 33 32 31 31 31 31 32 33 34 35 35 35 35 35 36 35 34 34 32 31 30 31 31 28 26 24 23 17 10 12 13 8 12 18
4 4 5 8 10 13 16 18 19 21 23 26 29 31 31 31 31 30 31 32 33 33 33 32 30 30 32 34 34 33 32 32 32 32 32 32 31 31 32 33 33 33 33 33 34 34 35 37 38 38 37 36 34 33 32 31 31 31 33 34 35 36 36 36 37 37 36 35 34 33 32 31 32 31 29 29 27 24 20 14 10 10 10 10 13
4 4 5 9 12 14 16 18 19 20 22 24 28 30 30 30 29 30 32 34 34 34 33 31 32 34 34 33 31 31 33 34 34 33 33 33 33 33 32 32 32 32 32 32 33 34 35 37 38 39 39 39 38 36 35 33 32 32 33 35 37 37 37 37 38 37 37 37 35 34 34 33 33 32 30 30 29 26 24 21 13 8 8 8 8
3 3 6 10 13 14 14 16 17 20 22 25 29 31 31 31 31 33 34 33 33 34 33 32 34 34 31 29 31 36 39 38 37 37 36 34 33 32 32 32 31 30 29 30 30 31 33 35 37 39 40 40 40 40 38 36 34 33 34 36 37 37 37 37 38 37 37 37 36 35 34 34 33 32 31 30 30 28 26 25 20 12 8 7 7
2 4 6 9 12 12 12 15 18 22 24 27 31 32 31 31 32 33 32 32 34 34 33 33 33 31 29 32 38 41 39 36 36 36 36 34 32 31 31 30 29 28 29 30 31 31 31 31 33 35 38 39 40 41 39 36 34 34 34 35 36 37 36 37 37 36 36 36 35 35 34 35 34 32 31 31 30 29 27 26 24 21 14 8 7
4 4 5 8 10 10 12 17 21 24 25 29 31 30 29 30 30 31 33 35 35 34 33 32 30 30 35 40 42 39 35 34 34 34 35 34 32 29 28 28 28 30 32 33 33 33 32 30 30 31 31 33 35 36 36 34 33 33 33 34 35 35 35 37 36 35 36 35 34 34 33 33 33 31 31 31 29 28 28 26 26 26 22 15 9
3 3 4 7 10 11 15 20 23 25 28 30 30 30 30 30 29 31 33 33 32 32 31 29 30 36 40 40 37 35 34 33 33 34 34 30 29 29 28 29 30 32 32 33 34 33 33 32 31 30 29 28 29 29 29 30 30 31 32 32 33 33 33 35 35 35 36 35 34 34 33 32 32 30 30 30 29 28 28 27 27 26 26 24 18
2 2 4 7 11 14 18 22 25 28 30 31 31 32 31 29 30 33 33 31 31 30 29 31 37 40 38 35 34 34 32 31 32 34 33 31 33 35 31 31 34 34 34 34 34 34 34 34 33 32 31 29 28 28 28 28 29 30 31 31 32 32 33 34 35 34 35 34 33 33 33 32 31 29 29 28 28 28 28 27 27 26 26 26 24
2 3 6 10 14 17 21 24 27 30 30 30 32 31 29 30 33 35 34 32 31 29 32 39 40 37 35 35 33 31 30 33 36 37 35 34 35 35 33 35 38 37 37 38 38 36 36 36 35 32 30 29 29 29 29 29 30 30 30 31 31 31 33 34 34 34 33 33 33 33 33 33 30 29 28 27 26 27 27 27 27 26 26 25 24
3 5 8 12 16 20 23 25 28 29 27 29 30 28 28 32 34 34 32 30 28 33 39 39 35 34 34 31 30 33 35 38 40 39 36 33 34 37 38 39 40 39 39 40 40 39 37 37 37 35 32 30 30 29 29 28 28 29 29 29 30 30 32 33 33 33 33 32 32 32 32 31 30 28 28 27 26 26 26 26 27 26 25 25 25
4 7 11 14 17 20 22 23 25 24 25 29 29 27 30 33 33 32 30 27 31 38 38 34 34 32 29 29 35 41 38 35 35 35 33 33 36 39 37 35 37 38 38 37 37 38 39 38 39 39 38 36 33 31 29 28 28 29 29 30 30 31 32 32 32 33 33 32 31 31 31 30 27 27 27 27 26 26 25 26 27 26 26 25 25
5 8 12 15 17 19 19 21 22 23 27 31 29 27 31 32 31 31 28 29 36 39 34 33 33 27 27 36 42 40 33 31 31 30 30 33 36 36 34 33 34 35 36 36 37 36 35 35 35 36 37 36 36 34 31 29 28 29 30 31 32 32 32 33 33 33 32 31 31 30 30 28 26 26 26 25 25 25 25 26 25 25 25 25 26
6 7 11 13 15 16 18 20 22 25 30 30 27 28 31 30 30 30 29 32 35 33 32 32 27 26 36 43 40 33 30 30 30 29 31 35 35 33 33 32 32 34 34 35 35 33 33 35 36 37 37 36 35 34 31 30 29 29 31 33 33 33 34 34 34 34 33 32 31 31 30 28 26 26 25 24 24 24 24 25 24 24 24 24 25
7 8 9 11 14 16 19 22 24 27 29 27 26 28 29 28 28 29 30 31 31 31 31 27 25 35 44 41 34 30 30 30 30 31 33 34 33 33 32 31 31 33 34 33 33 33 34 36 38 39 39 38 35 32 30 29 29 30 32 33 34 35 35 35 35 34 32 31 31 31 30 28 27 26 25 25 24 24 24 24 23 23 23 22 23
7 8 9 11 14 18 22 23 24 26 27 27 27 28 27 27 28 28 28 29 30 31 28 24 31 41 40 33 31 30 30 31 32 33 33 33 33 32 31 31 32 33 35 34 34 35 35 36 38 38 38 38 37 35 34 33 33 34 33 33 34 35 35 35 34 32 31 31 31 30 29 28 28 27 27 26 25 25 24 24 24 23 23 23 22
8 9 10 11 13 17 21 23 25 27 27 27 27 26 26 26 27 28 28 29 31 30 25 27 36 38 33 30 31 30 31 32 32 33 33 33 33 32 32 33 34 34 35 34 34 37 38 38 39 39 38 38 36 34 33 33 34 32 31 32 33 34 34 33 32 30 30 30 30 30 29 28 28 27 27 27 26 25 24 23 23 23 23 23 21
9 10 10 11 14 17 21 24 26 26 27 28 27 26 27 27 26 28 29 29 31 28 25 31 36 33 30 32 31 31 32 33 33 35 34 34 34 34 35 36 36 35 35 36 37 38 39 38 38 36 34 34 33 32 31 31 31 31 31 33 34 34 32 30 29 28 28 28 28 28 28 27 28 27 27 26 25 25 24 24 24 23 23 22 21
10 11 10 12 15 19 21 23 24 25 27 28 27 27 28 27 27 29 29 29 29 26 25 31 34 32 32 33 32 33 34 34 36 36 35 36 36 37 39 39 38 38 38 39 40 39 38 38 36 34 34 35 36 36 34 33 33 34 34 34 33 32 31 29 28 27 26 27 26 26 26 26 27 26 24 22 23 23 24 24 25 25 24 23 21
11 11 10 13 16 18 20 22 23 25 27 28 28 29 28 27 28 30 29 29 28 25 27 32 35 35 35 35 36 36 37 37 37 36 36 38 40 41 42 42 41 41 41 40 40 39 38 38 37 37 37 38 38 37 35 33 33 33 34 33 30 29 30 29 28 27 25 25 25 25 26 26 26 25 22 21 22 24 24 25 25 26 27 27 26
11 9 9 12 15 18 20 22 24 25 27 29 30 29 27 27 29 30 28 28 27 27 30 34 36 37 37 38 39 39 40 41 40 39 39 41 42 42 42 42 43 43 42 41 39 39 39 39 39 39 38 38 38 37 34 32 31 31 32 33 29 26 29 29 28 27 26 25 25 24 25 25 25 25 24 23 23 23 24 25 26 26 26 27 29
11 9 10 13 16 19 22 24 25 25 27 29 29 27 27 29 31 30 29 29 29 30 34 37 38 39 39 40 41 41 43 44 42 42 42 42 42 42 42 43 43 43 41 40 39 39 40 40 40 39 39 39 38 35 32 31 31 31 31 32 28 24 28 29 28 27 27 26 25 24 23 24 25 24 23 23 24 24 24 24 25 26 26 24 24
10 10 12 15 18 20 23 24 24 25 27 29 27 26 28 31 32 31 30 30 31 34 37 38 40 41 41 41 42 42 43 44 44 43 43 42 42 42 42 43 43 42 41 41 41 41 41 40 41 40 39 38 36 34 32 31 31 30 29 30 26 21 26 29 28 28 28 27 26 25 24 24 24 23 23 23 23 23 23 23 23 25 28 27 24
9 9 14 17 19 21 24 24 24 25 28 28 27 28 31 32 32 31 30 30 32 34 36 38 40 41 41 42 43 43 43 44 44 43 42 42 42 42 43 44 42 41 41 41 42 42 41 40 41 40 38 36 34 32 31 29 28 27 26 26 21 16 20 26 28 28 28 28 27 26 26 25 24 24 24 23 22 21 21 22 22 23 27 29 28
10 11 15 18 20 22 25 25 24 26 27 27 28 31 32 32 31 30 30 30 32 33 35 37 38 39 40 41 42 43 43 43 43 43 42 42 42 43 43 43 42 41 41 41 42 42 42 42 40 37 33 33 33 31 29 27 25 24 24 21 16 11 14 20 23 25 26 27 26 26 26 25 24 25 23 20 19 19 20 21 22 22 24 26 30
13 14 17 19 22 24 26 25 26 27 26 27 30 32 32 32 31 30 31 32 32 33 35 37 38 38 40 41 41 42 43 43 42 41 42 42 42 42 43 42 42 42 41 41 42 43 41 38 35 32 30 31 32 30 28 26 23 22 22 19 14 10 11 14 18 21 23 24 25 26 26 25 25 25 24 20 18 18 19 21 22 22 21 23 28
15 17 19 20 23 25 25 25 25 26 26 27 30 31 31 30 30 30 32 32 32 35 37 38 39 39 40 41 41 41 42 43 42 41 42 42 42 42 42 41 41 42 42 41 40 39 35 32 31 31 31 30 29 29 27 25 23 22 20 19 15 11 11 13 14 17 19 22 23 24 24 25 26 26 23 20 19 19 19 20 21 21 21 21 23
17 18 19 21 24 25 23 23 23 24 26 28 29 29 29 28 28 30 32 32 34 37 39 40 41 41 41 41 41 41 41 41 41 41 42 42 42 41 41 41 41 41 40 38 35 34 33 32 32 32 30 28 28 28 26 24 23 22 20 18 16 12 10 12 13 15 17 19 21 21 21 23 25 25 23 20 20 22 21 20 20 19 20 21 21
18 18 18 21 24 24 24 24 24 24 27 28 28 28 27 27 28 29 30 31 35 39 40 41 42 42 42 41 41 40 40 40 41 41 41 40 40 40 41 41 40 38 35 35 35 34 34 34 33 31 29 28 27 26 25 24 23 22 20 18 16 13 9 10 12 15 16 17 19 21 21 21 21 22 22 22 21 22 22 21 21 20 20 21 21
18 18 18 21 23 22 23 25 25 27 29 28 28 28 27 28 29 28 29 33 37 40 41 42 42 43 42 42 40 39 39 39 39 39 39 39 39 40 40 40 38 36 35 37 37 35 34 33 32 30 29 27 26 25 24 23 22 21 20 18 16 14 11 9 11 14 16 17 18 20 22 22 21 21 22 23 23 23 22 22 23 22 21 21 20
18 17 19 21 22 21 23 24 25 27 29 28 28 28 28 28 29 28 32 36 39 40 41 42 43 43 43 42 41 40 39 38 38 37 37 39 40 39 39 38 36 36 37 38 37 35 33 33 33 31 28 26 25 24 23 22 21 20 19 18 17 15 13 12 12 14 16 16 17 19 20 20 20 21 22 23 23 23 23 23 23 22 21 21 21
18 18 20 22 22 22 22 24 25 27 28 28 28 27 27 28 28 30 35 38 38 39 41 42 42 43 43 42 41 40 40 38 37 36 36 38 40 39 39 37 36 36 36 36 35 33 31 31 32 30 28 26 24 23 22 21 20 20 18 17 17 16 14 14 14 16 17 17 17 19 20 19 19 21 23 23 23 23 23 23 22 21 21 23 23
19 20 22 22 23 23 24 25 26 27 28 28 27 27 28 29 30 34 37 38 39 40 41 41 42 43 43 43 41 40 40 38 36 36 37 38 39 39 38 37 37 35 32 31 31 31 29 28 28 28 27 26 24 22 22 20 19 18 18 17 16 15 14 15 15 16 17 18 20 21 21 20 20 21 22 21 21 22 22 21 20 21 23 25 23
20 21 22 23 23 24 25 26 28 28 29 29 28 28 29 30 33 36 37 38 40 41 41 41 41 42 42 41 40 39 39 37 37 37 37 38 38 36 35 36 37 34 30 28 28 30 29 27 25 24 25 25 24 23 23 22 18 16 16 15 14 14 13 13 14 14 15 18 21 20 18 17 18 19 19 19 20 21 20 20 20 21 22 24 24
21 22 23 23 23 23 24 26 28 29 28 29 29 28 28 31 35 37 37 37 39 41 41 40 40 40 39 38 38 38 38 38 38 38 37 37 37 35 34 35 34 32 30 28 29 30 29 27 24 21 22 23 24 24 24 22 19 17 16 14 13 12 12 12 12 13 14 17 18 17 15 14 15 15 16 18 19 20 19 19 20 21 21 22 23
21 22 23 23 23 24 25 26 28 29 29 29 29 29 29 31 34 35 36 37 38 39 40 40 39 38 37 36 36 37 37 38 40 39 37 38 38 36 33 32 32 30 29 29 30 29 26 23 22 21 21 22 23 24 24 23 21 19 18 17 16 13 10 9 10 10 12 15 16 15 13 13 14 16 18 20 21 21 20 20 20 20 20 20 20
21 22 23 23 23 24 25 26 28 30 30 30 30 30 31 32 34 35 36 37 38 38 38 38 37 35 34 34 34 35 36 38 40 39 38 37 37 36 34 31 29 28 29 30 29 26 23 23 24 24 22 21 22 24 24 22 22 22 21 20 19 16 11 8 8 6 7 10 14 15 14 14 15 14 11 11 11 11 11 12 13 14 15 16 17
21 21 23 23 24 25 26 27 29 30 31 31 32 32 33 33 33 35 35 36 37 38 38 36 35 33 33 33 34 34 36 38 39 39 38 36 33 31 31 32 31 29 30 31 29 25 27 28 28 27 24 19 20 24 27 26 26 25 20 16 15 12 9 7 7 6 5 6 8 10 11 10 7 4 8 11 12 13 13 12 12 11 11 11 12
21 22 23 24 25 26 26 28 30 30 31 32 32 33 33 33 33 34 34 35 37 37 36 35 34 33 33 33 33 34 36 36 37 38 40 40 37 32 28 27 30 32 33 32 30 29 32 32 31 32 30 22 19 24 27 25 23 19 11 7 6 5 3 3 5 6 6 4 4 4 4 4 6 9 12 13 14 15 16 15 15 14 14 14 14
21 22 23 24 26 26 27 29 30 31 31 31 32 33 33 33 33 33 34 35 36 34 33 33 34 33 32 32 32 34 35 36 36 36 36 39 42 42 38 32 31 32 34 34 33 33 35 35 34 35 35 30 28 29 27 25 28 30 23 14 8 3 1 3 5 4 3 5 7 8 8 8 9 11 11 12 13 14 14 14 13 12 12 11 11
Wind_Direction
79 102 116 120 120 119 116 113 107 97 87 79 72 64 51 36 27 24 20 15 11 4 355 349 346 343 339 336 334 333 331 327 324 323 321 319 319 319 317 314 311 309 308 305 302 299 297 295 294 293 292 287 284 284 286 287 286 285 283 281 279 277 277 278 278 279 281 283 283 283 282 282 283 283 281 279 275 271 269 266 262 257 256 257 256
76 87 100 115 123 124 117 110 103 92 83 75 66 54 36 27 24 20 15 11 9 3 354 346 340 336 330 327 327 325 324 322 319 320 319 316 316 317 318 317 313 311 309 306 303 300 298 296 294 294 292 288 285 284 284 284 284 284 281 279 277 274 273 276 278 277 273 275 284 292 293 290 288 284 279 276 273 269 265 260 254 250 249 250 253
68 67 78 97 109 115 110 101 92 83 76 66 50 36 27 24 22 17 12 8 4 359 351 342 335 330 323 318 316 314 316 316 313 313 314 312 311 309 308 311 312 310 308 306 302 299 297 295 295 294 292 289 285 283 282 282 282 283 280 276 275 274 273 274 273 269 264 270 285 288 293 305 301 287 278 276 273 267 263 257 250 248 246 246 248
66 58 66 73 80 95 99 92 81 73 62 47 35 29 26 24 21 16 11 6 360 353 346 338 329 323 317 311 308 304 306 310 309 309 311 310 310 307 304 303 304 305 304 303 298 297 295 294 294 292 290 288 284 280 279 279 280 280 280 276 272 270 271 272 270 265 260 260 267 275 290 316 291 291 306 299 286 263 256 256 251 246 241 240 243
72 59 50 62 74 86 88 81 70 60 47 37 33 29 26 24 20 15 10 2 355 349 343 336 327 320 313 307 304 300 300 303 303 306 311 310 309 309 306 301 298 298 299 297 295 295 294 293 293 291 289 288 283 279 277 277 277 276 276 274 269 265 266 270 270 266 261 252 243 246 278 288 260 309 328 312 296 264 252 254 249 241 237 237 240
73 66 52 67 80 81 78 71 62 52 41 35 32 29 26 24 19 13 7 1 354 350 347 342 335 327 317 307 303 300 297 298 299 302 304 305 306 306 306 303 297 294 294 294 292 292 292 292 292 290 289 287 283 279 276 275 274 273 272 269 267 265 263 264 266 264 263 257 247 245 249 251 262 307 328 305 298 285 270 260 251 244 242 240 240
64 56 52 70 81 78 72 64 53 44 36 33 31 28 26 21 16 11 6 1 355 352 350 348 344 338 330 318 308 301 296 297 301 302 300 300 300 300 301 301 297 293 291 290 288 288 288 289 289 288 287 286 283 278 275 275 274 273 272 268 266 266 260 257 261 262 263 260 253 250 251 252 256 264 268 269 294 288 271 265 261 254 251 250 248
60 51 55 75 81 74 67 56 47 40 34 32 30 25 21 16 11 8 4 359 354 350 346 345 343 341 338 330 320 310 304 304 306 305 302 298 295 294 296 296 295 293 289 287 285 283 282 283 284 284 283 284 281 276 275 276 274 272 271 268 266 264 258 255 259 260 257 258 257 253 253 254 254 253 252 253 265 282 273 271 270 268 265 261 258
58 58 66 77 76 67 59 51 44 39 35 32 28 22 16 12 8 4 1 356 351 347 343 341 341 339 338 334 328 321 316 315 313 309 305 300 295 292 292 292 294 293 289 286 284 281 278 277 279 279 280 281 279 276 275 274 272 270 268 266 263 260 257 255 256 256 253 255 256 253 254 256 255 254 251 248 244 257 268 267 268 272 271 265 262
57 66 73 73 66 59 51 44 39 34 33 30 25 20 14 9 5 0 358 353 348 345 343 341 341 339 337 334 328 324 321 320 317 313 309 304 296 292 290 291 295 294 290 287 284 282 278 274 273 274 276 277 276 274 273 271 270 270 268 265 261 258 256 253 252 254 253 253 254 251 252 253 255 255 248 242 240 247 257 260 259 262 269 270 266
56 61 61 55 53 50 42 36 30 28 31 29 22 16 10 5 0 356 353 350 347 345 343 341 340 338 335 332 328 325 323 322 320 317 314 309 301 295 293 295 297 296 292 288 285 283 279 275 272 271 272 273 273 272 269 269 269 271 270 266 262 259 257 255 253 254 253 253 253 248 247 248 247 249 246 241 237 240 254 264 256 249 255 267 268
57 54 45 42 44 42 35 26 21 25 30 25 16 11 6 1 357 352 349 348 346 344 343 340 338 336 335 334 332 330 328 325 322 319 318 315 310 305 302 302 302 299 296 291 287 284 282 279 273 269 268 268 269 269 267 266 268 269 268 264 261 259 257 255 254 254 253 251 251 248 247 248 246 248 251 248 244 246 252 261 260 253 252 260 264
44 40 33 28 31 33 26 15 15 26 26 18 11 7 1 357 354 350 347 347 346 344 342 338 337 338 339 338 335 331 328 325 323 321 320 319 316 312 310 309 307 304 300 294 290 289 289 286 279 272 269 268 268 268 265 263 264 265 265 262 259 257 256 254 253 253 252 251 251 251 249 249 248 249 251 251 249 250 249 255 262 254 246 262 266
26 20 19 16 24 27 17 13 21 25 19 12 7 2 358 354 351 349 347 346 345 343 341 340 341 341 339 335 333 332 330 330 328 326 325 324 321 318 315 313 311 308 305 300 297 295 294 291 285 277 273 270 268 266 263 260 260 262 263 261 258 256 255 254 253 253 253 252 252 252 250 250 250 250 249 249 249 247 244 247 260 256 246 259 268
358 2 5 15 24 19 13 21 28 21 13 9 4 359 356 353 351 350 347 345 345 345 344 343 341 338 336 336 338 339 336 334 331 329 328 326 323 321 319 317 315 312 310 307 303 300 296 293 287 282 278 274 269 265 262 257 256 258 260 259 256 255 253 252 252 252 252 252 250 250 250 250 250 250 248 247 246 245 245 245 247 254 256 258 263
323 355 4 18 19 11 16 30 27 14 9 6 2 358 355 353 352 349 347 346 346 344 343 340 337 336 338 341 341 337 333 331 328 326 325 323 321 319 318 317 317 317 317 317 315 312 306 299 291 285 281 276 270 266 261 255 255 257 258 256 254 253 251 250 251 250 250 251 250 249 249 249 250 250 248 247 247 245 246 245 241 239 252 263 262
345 12 15 19 8 5 27 33 19 11 8 4 1 357 355 353 350 347 346 345 344 342 340 338 337 339 342 340 336 333 331 329 327 326 325 323 320 318 317 317 319 323 325 325 324 323 320 313 303 293 285 278 272 266 258 254 256 257 257 256 254 253 251 250 250 249 249 250 250 249 247 248 250 249 247 247 246 245 245 244 241 238 240 250 264
17 21 22 12 0 14 36 26 13 10 7 1 358 355 353 351 349 348 346 342 341 340 339 340 342 343 340 336 333 332 332 329 327 325 324 323 323 323 324 325 326 328 328 326 324 322 321 319 314 307 298 288 277 266 258 257 257 258 258 258 258 256 252 251 250 249 250 251 250 249 247 247 248 247 247 246 245 244 244 242 242 240 238 239 247
21 12 6 359 7 29 30 15 9 7 2 358 355 353 352 351 350 347 342 339 340 340 341 344 344 339 335 333 334 334 333 331 329 328 326 326 330 333 332 330 330 329 328 326 324 321 319 317 314 311 308 300 289 278 270 267 263 262 263 262 261 257 253 252 252 250 250 250 248 248 246 245 246 245 245 245 244 243 243 242 242 240 238 239 241
19 2 351 5 22 27 18 9 6 2 358 356 354 352 351 350 348 344 341 341 342 344 346 344 339 336 335 336 337 335 334 335 335 336 335 334 335 335 333 330 328 326 324 323 320 318 317 316 313 308 304 300 295 289 282 277 273 269 267 264 262 259 255 254 253 251 250 248 247 246 245 244 244 243 243 244 243 242 242 241 240 240 238 239 239
11 7 6 17 24 18 9 6 3 358 355 355 352 349 350 350 347 345 344 343 345 348 345 340 337 337 337 338 339 339 340 339 337 337 338 336 335 334 331 328 324 321 319 317 314 312 311 310 311 308 304 299 295 290 285 279 275 271 268 265 264 261 258 256 255 253 250 247 245 243 243 243 242 241 242 242 242 241 241 240 239 239 238 237 236
8 12 16 20 18 11 5 2 358 354 353 352 350 350 351 350 347 345 343 344 347 345 340 337 337 337 337 339 341 340 338 333 331 332 334 333 331 330 327 324 321 318 316 314 311 308 305 303 302 302 302 302 298 294 288 281 276 272 269 267 265 263 260 257 255 252 250 246 243 241 241 241 240 241 241 241 242 240 239 238 237 236 237 237 236
10 20 21 19 14 7 2 357 353 352 352 351 350 352 352 348 346 345 343 344 343 339 337 337 337 337 340 342 339 335 332 331 330 330 331 331 329 328 326 323 320 318 317 315 312 310 306 301 297 295 295 296 295 293 290 284 280 277 275 273 270 266 262 259 255 252 249 245 240 238 239 239 238 239 241 241 241 241 239 237 237 236 237 239 238
5 20 21 17 10 3 358 353 351 352 353 351 351 351 349 346 346 345 344 342 339 337 337 337 336 338 341 338 335 332 330 331 331 329 329 329 328 327 325 322 320 319 318 316 314 312 309 306 302 298 294 291 288 286 285 284 283 282 280 277 273 269 264 261 257 253 249 243 238 237 237 238 237 237 239 240 240 240 238 237 237 237 237 239 240
357 15 18 13 5 358 355 353 353 354 352 350 349 348 346 345 345 344 341 337 337 337 336 334 335 339 338 336 335 333 330 330 330 329 327 327 325 325 323 321 320 320 318 317 316 314 313 312 309 306 302 297 290 282 278 278 280 281 280 278 274 270 265 262 258 253 247 241 237 237 238 237 236 236 238 239 238 238 237 236 237 237 237 239 239
0 15 14 5 358 354 355 355 355 353 349 347 346 345 344 344 343 342 338 335 334 334 332 332 337 339 337 336 335 333 332 330 329 327 326 325 325 323 321 320 319 318 317 315 313 313 313 311 309 306 303 300 294 287 281 280 280 280 278 276 273 270 265 261 257 251 246 240 237 237 238 236 235 236 237 238 238 237 236 236 236 236 238 238 237
9 16 6 356 355 354 355 355 353 350 348 346 344 343 344 343 341 340 338 336 334 332 330 334 339 338 337 335 333 331 330 328 326 325 324 324 323 321 319 318 316 315 314 312 310 309 309 307 305 302 300 297 292 286 283 281 278 276 273 272 271 268 263 258 254 249 243 240 238 238 238 236 236 237 237 238 238 237 237 238 238 237 236 235 234
19 10 358 354 355 353 354 353 350 348 347 345 343 342 343 341 339 339 338 336 333 330 330 336 338 337 335 333 331 329 327 325 324 324 323 323 322 320 319 316 315 313 311 310 308 308 307 306 304 301 299 297 291 285 283 281 276 271 270 271 271 266 261 255 250 246 242 239 238 237 237 237 237 238 238 238 238 237 237 238 238 236 233 231 230
14 360 356 357 355 353 353 350 347 346 345 344 342 341 341 340 339 339 337 335 334 331 331 336 337 336 334 331 329 328 326 325 324 323 322 322 321 319 318 316 314 312 310 309 308 308 307 306 305 303 301 301 298 294 294 290 282 276 274 272 268 262 257 251 246 243 241 239 238 236 236 238 238 240 240 238 239 238 236 237 236 234 230 226 226
1 355 359 360 356 353 350 346 344 344 343 342 341 340 340 339 339 339 336 335 334 332 331 334 335 333 331 330 328 327 326 325 324 323 322 321 320 319 318 316 314 313 311 311 310 308 307 306 304 303 301 302 302 298 295 289 282 278 274 270 263 255 250 247 243 241 238 236 236 235 236 238 239 240 238 234 236 238 236 236 235 233 230 226 224
352 358 1 358 355 351 347 344 342 342 342 341 339 337 338 338 339 338 335 334 334 331 331 332 332 331 330 330 329 328 326 325 324 323 322 322 321 320 319 317 316 316 314 313 312 309 309 307 305 303 302 301 300 297 293 288 282 278 274 271 264 250 243 242 239 236 235 233 233 234 236 239 239 238 236 234 237 241 241 241 240 237 233 230 227
350 3 4 356 354 349 344 342 340 340 341 340 337 336 337 338 338 336 334 333 333 331 330 330 331 331 331 330 330 329 327 326 326 325 323 323 322 321 320 318 317 317 316 315 313 310 309 309 307 305 304 303 302 300 297 292 286 282 278 276 268 248 238 237 234 232 232 230 230 232 234 237 237 236 236 236 238 241 244 245 246 245 241 236 230
353 2 1 354 351 346 342 339 338 339 341 339 337 336 336 336 336 335 334 334 333 332 331 330 331 332 331 331 331 329 328 327 327 326 324 324 323 321 320 319 318 318 317 315 313 311 310 309 308 306 305 305 304 302 301 296 291 287 281 279 274 250 233 232 230 228 229 228 229 230 231 233 236 236 236 237 239 242 245 247 248 250 253 252 240
354 359 356 351 346 342 338 336 336 337 339 339 338 336 335 335 335 335 335 334 333 332 331 331 331 332 332 331 330 329 327 326 326 326 325 324 323 321 321 321 320 318 317 314 313 312 310 309 308 307 305 304 302 302 301 297 293 288 282 281 279 255 231 227 227 227 228 229 229 229 229 231 232 233 234 236 239 241 244 246 246 248 253 258 257
352 355 351 347 343 339 337 336 336 337 338 340 339 337 335 334 335 335 334 334 332 330 330 330 330 330 331 330 330 328 327 325 325 326 325 323 323 322 322 322 320 318 316 314 313 311 309 309 309 306 304 302 303 304 303 300 296 291 287 288 286 262 231 225 226 226 227 229 230 229 230 231 231 232 233 234 236 239 241 243 244 245 248 252 256
348 352 347 344 342 339 336 335 335 337 338 340 340 338 335 334 335 336 334 333 331 329 329 330 329 329 330 329 329 327 325 325 325 324 324 323 323 322 322 322 320 318 317 315 314 312 311 309 307 305 304 304 306 307 306 304 300 296 296 297 293 270 237 226 226 226 226 228 229 229 229 229 230 232 232 231 233 238 239 238 239 243 245 247 249
345 348 345 343 341 338 336 335 335 336 338 339 339 337 336 334 335 336 334 333 331 329 330 330 329 329 328 328 328 326 324 324 324 323 323 322 322 321 322 322 320 318 317 316 314 313 311 308 305 305 306 306 307 308 307 306 303 300 300 303 296 272 245 232 229 228 228 229 230 230 229 229 230 231 231 229 233 240 242 236 233 235 239 243 245
343 344 344 343 341 338 335 334 335 335 336 338 338 337 336 334 334 335 334 332 331 330 331 330 329 328 328 328 328 326 325 324 324 323 322 321 321 321 320 321 320 317 316 315 313 312 310 309 308 308 308 308 307 307 307 307 306 303 302 305 303 282 251 238 232 229 229 230 231 230 228 228 231 232 231 232 236 241 244 239 230 226 227 234 240
343 343 343 342 339 335 333 334 336 335 336 338 338 337 336 334 334 334 333 332 332 331 331 330 328 328 328 328 328 327 326 324 323 323 323 321 321 320 320 321 320 317 316 316 315 313 312 311 311 309 308 309 309 308 307 305 305 304 303 306 307 297 264 242 235 230 226 226 229 229 226 228 233 235 234 234 239 241 241 240 233 224 221 227 233
342 340 340 341 338 335 334 335 337 336 337 338 338 337 336 334 334 334 333 333 332 330 330 329 328 328 328 328 329 328 326 325 324 323 323 322 321 321 321 321 320 319 318 317 316 314 311 310 310 309 308 309 308 307 306 304 302 301 301 301 303 299 278 247 235 230 225 225 228 229 229 230 234 237 236 236 240 242 239 236 234 227 223 228 231
339 337 339 341 338 336 335 335 336 337 337 339 339 337 336 335 334 333 333 332 331 330 331 330 329 329 329 329 329 328 327 326 325 324 323 322 323 322 322 321 320 320 319 317 316 314 311 309 310 309 307 307 307 306 304 303 301 299 298 298 297 296 290 268 243 230 225 224 225 228 233 234 236 242 245 243 243 245 240 233 230 229 232 232 230
338 337 341 341 338 337 335 334 336 338 338 339 340 337 335 335 334 333 333 333 332 332 332 330 329 329 329 330 330 330 329 328 327 326 324 323 324 325 323 322 321 320 319 317 315 314 311 310 311 310 307 307 308 307 303 301 300 297 294 292 289 286 281 269 249 232 227 228 227 229 235 236 236 243 249 249 249 249 244 235 229 230 233 230 224
340 339 341 341 338 335 334 333 336 338 339 340 339 336 334 334 333 333 334 333 333 333 332 331 330 330 330 331 331 331 331 330 329 329 327 324 325 326 326 325 323 321 320 317 316 315 312 310 311 310 308 308 309 310 307 302 299 297 294 290 285 279 272 263 250 236 233 235 236 238 240 240 242 248 252 253 252 251 247 240 233 229 228 225 220
339 338 339 340 337 334 333 333 336 338 339 340 339 336 334 334 333 334 335 334 333 333 332 332 332 331 331 332 332 332 332 332 331 331 329 327 327 328 327 326 325 322 319 315 315 315 312 309 309 308 307 308 311 314 314 308 301 296 293 289 285 279 271 264 257 247 240 241 246 248 247 246 249 253 254 252 250 249 248 246 239 231 225 223 216
337 336 338 338 336 333 332 333 336 339 340 340 341 339 334 333 334 336 336 335 334 334 333 332 332 332 332 332 332 333 333 333 333 333 331 329 329 329 327 326 325 323 319 316 315 314 311 307 304 303 304 310 314 316 319 319 314 305 299 293 288 284 274 265 261 257 254 252 251 251 251 252 254 255 253 251 250 248 246 245 243 237 232 227 216
336 336 336 336 334 333 332 333 334 338 339 339 340 339 335 333 335 336 337 336 335 334 333 332 332 332 333 333 333 333 333 333 334 334 334 332 331 329 327 326 324 322 321 319 317 314 311 309 309 307 306 311 318 321 323 326 325 318 313 308 298 289 278 268 262 258 259 257 253 251 255 259 257 254 250 249 250 250 246 242 239 238 238 232 216
334 334 334 334 334 334 334 333 333 335 338 338 338 338 336 335 336 337 337 336 335 334 332 331 332 333 333 334 333 332 332 333 334 335 335 334 334 332 329 326 324 323 324 322 318 315 315 318 325 325 318 316 321 322 321 325 327 322 319 317 310 300 286 268 256 257 263 258 249 247 255 260 258 257 255 252 251 250 246 242 238 237 239 237 220
331 333 334 335 334 334 334 332 332 334 337 337 338 338 338 338 338 338 337 336 335 334 332 332 333 333 333 334 334 333 333 333 334 334 335 335 335 333 330 326 324 325 324 320 318 320 327 335 339 338 330 320 317 319 321 322 318 310 305 304 300 294 286 267 250 262 280 261 243 242 251 260 261 257 246 233 226 220 214 214 215 218 224 229 220
329 333 335 335 335 334 333 331 331 334 336 337 337 338 339 339 338 338 338 337 336 335 334 333 334 334 334 335 335 334 334 334 333 333 334 334 334 332 328 326 328 332 329 326 330 339 344 346 347 346 339 320 307 313 318 317 314 308 300 296 295 291 285 260 232 243 279 267 239 237 242 246 242 179 119 111 111 113 115 119 124 135 150 161 169
330 333 335 335 335 334 332 331 332 335 336 336 336 337 338 338 338 338 339 338 337 335 334 334 335 335 334 335 335 334 335 335 335 334 334 334 335 335 333 332 335 338 338 340 347 353 354 356 355 352 351 346 334 329 327 330 344 356 350 320 304 294 277 224 213 236 258 241 193 170 164 151 122 105 96 94 98 101 100 98 98 101 108 114 121
331 333 334 334 335 334 333 332 333 334 335 334 334 336 338 338 339 340 340 339 338 337 334 333 334 333 333 334 334 334 335 336 336 336 336 335 335 337 339 342 345 346 346 350 356 358 359 2 0 356 358 3 5 4 5 13 27 34 36 33 31 47 145 192 202 187 135 125 124 109 97 94 95 94 92 95 99 101 100 98 97 97 99 101 106